This is the latest recevied weather packets stored in our database for station/object KN6ZYR. If no packets are shown the sender has not sent any weather packets the latest 10 day(s).
| Time | Temp. | Humidity | Pressure | Rain* | Wind** | Luminosity | Snow |
|---|---|---|---|---|---|---|---|
| 1777679864 | 25° C | 11% | 1019.1 hPa | 0 mm | - | 302 W/m² | - |
| 1777679561 | 25.56° C | 11% | 1019 hPa | 0 mm | - | 331 W/m² | - |
| 1777679257 | 25.56° C | 11% | 1019.1 hPa | 0 mm | - | 338 W/m² | - |
| 1777678953 | 25° C | 11% | 1019 hPa | 0 mm | - | 365 W/m² | - |
| 1777678652 | 25° C | 11% | 1019.2 hPa | 0 mm | - | 339 W/m² | - |
| 1777678350 | 25.56° C | 12% | 1019.2 hPa | 0 mm | - | 338 W/m² | - |
| 1777678050 | 25° C | 11% | 1019.2 hPa | 0 mm | - | 408 W/m² | - |
| 1777677747 | 25.56° C | 11% | 1019.2 hPa | 0 mm | - | 439 W/m² | - |
| 1777677445 | 25.56° C | 11% | 1019.2 hPa | 0 mm | - | 457 W/m² | - |
| 1777677143 | 25.56° C | 11% | 1019.3 hPa | 0 mm | - | 438 W/m² | - |
| 1777676841 | 25.56° C | 11% | 1019 hPa | 0 mm | - | 456 W/m² | - |
| 1777676540 | 25.56° C | 12% | 1019.2 hPa | 0 mm | - | 484 W/m² | - |
| 1777676237 | 25.56° C | 12% | 1019.3 hPa | 0 mm | - | 493 W/m² | - |
| 1777675933 | 25.56° C | 12% | 1019.6 hPa | 0 mm | - | 494 W/m² | - |
| 1777675629 | 25.56° C | 11% | 1019.8 hPa | 0 mm | - | 531 W/m² | - |
| 1777675327 | 25.56° C | 11% | 1019.7 hPa | 0 mm | - | 525 W/m² | - |
| 1777675023 | 25.56° C | 12% | 1019.7 hPa | 0 mm | - | 510 W/m² | - |
| 1777674720 | 25.56° C | 10% | 1020 hPa | 0 mm | - | 565 W/m² | - |
| 1777674416 | 26.11° C | 11% | 1019.9 hPa | 0 mm | - | 586 W/m² | - |
| 1777674114 | 25.56° C | 11% | 1020.1 hPa | 0 mm | - | 529 W/m² | - |
| 1777673810 | 26.11° C | 11% | 1020.2 hPa | 0 mm | - | 574 W/m² | - |
| 1777673507 | 25.56° C | 11% | 1020.2 hPa | 0 mm | - | 610 W/m² | - |
| 1777673205 | 25° C | 11% | 1020.1 hPa | 0 mm | - | 620 W/m² | - |
| 1777672902 | 25° C | 12% | 1020.4 hPa | 0 mm | - | 633 W/m² | - |
| 1777672599 | 25° C | 12% | 1020.6 hPa | 0 mm | - | 658 W/m² | - |
* Rain latest hour (hover to see other rain measurements)
** Current wind speed in m/s (hover to see current wind gust speed)